Regional Weather Roundup
Issued by NWS Sioux Falls, SD

Home | Current Version | Previous Version | Text Only | Print | Product List | Glossary On
Versions: 1 2 3 4 5 6 7 8 9 10 11 12 13 14 15 16 17 18 19 20 21 22 23 24 25 26 27 28 29 30 31 32 33 34 35 36 37 38 39 40 41 42 43 44 45 46 47 48 49 50
000
ASUS43 KFSD 190702
RWRFSD

WEATHER ROUNDUP FOR SE SOUTH DAKOTA/SW MINNESOTA/NW IOWA
NATIONAL WEATHER SERVICE SIOUX FALLS SD
200 AM CDT FRI SEP 19 2014

NOTE: "FAIR" INDICATES FEW OR NO CLOUDS BELOW 12,000 FEET WITH NO
SIGNIFICANT WEATHER AND OR OBSTRUCTIONS TO VISIBILITY.


SDZ038>040-050-052>070-190800-
SOUTHEAST SOUTH DAKOTA

CITY           SKY/WX    TMP DP  RH WIND       PRES   REMARKS
CHAMBERLAIN    MOCLDY    68  64  86 S15       29.75F
HURON          CLOUDY    66  58  75 S15G28    29.77F
MADISON        CLOUDY    61  57  88 S21G28    29.86F
MITCHELL       CLOUDY    65  58  78 S18G28    29.82S
SIOUX FALLS    CLOUDY    62  55  77 S21G29    29.89F
WINNER         FAIR      68  62  81 S25G38    29.73F
YANKTON        PTCLDY    61  55  82 SE15G23   29.88F
$$

MNZ071-072-080-081-089-090-097-098-190800-
SOUTHWEST MINNESOTA

CITY           SKY/WX    TMP DP  RH WIND       PRES   REMARKS
FAIRMONT       MOCLDY    57  48  72 S13       29.98R
JACKSON        PTCLDY    59  54  82 S13G21    29.96F
LUVERNE        CLOUDY    61  54  77 S12G21    29.92F
MARSHALL       MOCLDY    61  52  72 S16       29.88F
MONTEVIDEO     CLOUDY    61  54  77 S9        29.88F
PIPESTONE      MOCLDY    59  54  82 S17       29.90F
REDWOOD FALLS  MOCLDY    59  52  77 S13       29.91F
TRACY          MOCLDY    61  54  78 S17G23    29.90S
WINDOM         PTCLDY    61  55  82 S15G22    29.94F
WORTHINGTON    MOCLDY    57  54  88 S12G20    29.95F
$$

IAZ001>003-012>014-020>022-031-032-NEZ013-014-SDZ071-190800-
NORTHWEST IOWA

CITY           SKY/WX    TMP DP  RH WIND       PRES   REMARKS
CHEROKEE       CLEAR     57  57  98 S9        29.98S
DENISON        PTCLDY    59  57  94 S9        29.98R
ESTHERVILLE    MOCLDY    57  53  86 S13       29.98R
LE MARS          N/A     61  57  88 S13       29.94F
ORANGE CITY    CLEAR     61  55  82 S10       29.94F
SHELDON        MOCLDY    57  57 100 S13G21    29.93F
SIOUX CITY     PTCLDY    61  58  90 S12       29.95S
SPENCER        PTCLDY    59  55  87 S12       29.97S
STORM LAKE     CLEAR     57  57 100 S10       29.99S
$$

ABBREVIATIONS USED IN REMARKS
   TC - TEMPERATURE IN CELSIUS
  WCI - WIND CHILL INDEX
   HX - HEAT INDEX
  VSB - VISIBILITY



USA.gov is the U.S. government's official web portal to all federal, state and local government web resources and services.